| time (UTC) | temp F | wind direction | speed MPH | gust MPH | rain 1hr in | rain 24hr in | rain mn in | humidity % | barometer mb |
| 20260503032606 | 70 | 320 | 0.0 | 2.0 | 0.00 | 0.24 | 0.24 | 93 | 1014.8 |
| 20260503031606 | 70 | 320 | 1.0 | 3.0 | 0.00 | 0.24 | 0.24 | 93 | 1014.5 |
| 20260503030111 | 71 | 326 | 2.0 | 5.0 | 0.00 | 0.24 | 0.24 | 94 | 1014.4 |
| 20260503025105 | 71 | 336 | 1.0 | 2.0 | 0.00 | 0.24 | 0.24 | 94 | 1014.2 |
| 20260503024606 | 71 | 336 | 1.0 | 2.0 | 0.00 | 0.24 | 0.24 | 94 | 1014.2 |
| 20260503024106 | 71 | 336 | 1.0 | 2.0 | 0.00 | 0.24 | 0.24 | 94 | 1014.3 |
| 20260503023605 | 71 | 336 | 0.0 | 0.0 | 0.00 | 0.24 | 0.24 | 94 | 1014.3 |
| 20260503022606 | 71 | 198 | 0.0 | 1.0 | 0.00 | 0.24 | 0.24 | 94 | 1014.4 |
| 20260503022106 | 71 | 199 | 0.0 | 2.0 | 0.00 | 0.24 | 0.24 | 94 | 1014.4 |
| 20260503021605 | 71 | 199 | 0.0 | 2.0 | 0.00 | 0.24 | 0.24 | 94 | 1014.3 |
| 20260503021105 | 71 | 196 | 1.0 | 2.0 | 0.00 | 0.24 | 0.24 | 94 | 1014.3 |
| 20260503020606 | 71 | 192 | 0.0 | 2.0 | 0.00 | 0.24 | 0.24 | 94 | 1014.2 |
| 20260503020112 | 71 | 192 | 0.0 | 0.0 | 0.00 | 0.24 | 0.24 | 94 | 1014.1 |
| 20260503015606 | 71 | 192 | 0.0 | 1.0 | 0.00 | 0.24 | 0.24 | 94 | 1013.9 |
| 20260503014605 | 71 | 192 | 0.0 | 1.0 | 0.00 | 0.24 | 0.24 | 94 | 1013.8 |
| 20260503014106 | 71 | 192 | 0.0 | 0.0 | 0.00 | 0.24 | 0.24 | 94 | 1013.6 |
| 20260503013605 | 71 | 192 | 0.0 | 0.0 | 0.00 | 0.24 | 0.24 | 94 | 1013.5 |
| 20260503013106 | 71 | 192 | 0.0 | 0.0 | 0.00 | 0.24 | 0.24 | 94 | 1013.4 |
| 20260503012606 | 71 | 192 | 0.0 | 0.0 | 0.00 | 0.24 | 0.24 | 94 | 1013.5 |
| 20260503012106 | 71 | 192 | 0.0 | 0.0 | 0.00 | 0.24 | 0.24 | 94 | 1013.5 |
| 20260503011606 | 71 | 192 | 0.0 | 1.0 | 0.00 | 0.24 | 0.24 | 94 | 1013.5 |
| 20260503011105 | 71 | 192 | 0.0 | 1.0 | 0.00 | 0.24 | 0.24 | 94 | 1013.2 |
| 20260503010605 | 71 | 192 | 0.0 | 0.0 | 0.00 | 0.24 | 0.24 | 94 | 1013.0 |
| 20260503010112 | 71 | 192 | 0.0 | 0.0 | 0.00 | 0.24 | 0.24 | 94 | 1012.8 |
| 20260503005605 | 71 | 192 | 0.0 | 1.0 | 0.00 | 0.24 | 0.24 | 94 | 1012.6 |
| 20260503005105 | 71 | 192 | 0.0 | 1.0 | 0.00 | 0.24 | 0.24 | 94 | 1012.6 |
| 20260503004606 | 71 | 192 | 0.0 | 1.0 | 0.00 | 0.24 | 0.24 | 94 | 1012.6 |
| 20260503003106 | 71 | 192 | 0.0 | 1.0 | 0.00 | 0.24 | 0.24 | 93 | 1012.5 |
| 20260503002606 | 71 | 192 | 0.0 | 1.0 | 0.00 | 0.24 | 0.24 | 94 | 1012.4 |
| 20260503002105 | 71 | 192 | 0.0 | 0.0 | 0.00 | 0.24 | 0.24 | 93 | 1012.4 |
| 20260503001606 | 71 | 192 | 0.0 | 0.0 | 0.00 | 0.24 | 0.24 | 93 | 1012.3 |
| 20260503001106 | 70 | 192 | 0.0 | 0.0 | 0.00 | 0.24 | 0.24 | 93 | 1012.3 |
| 20260502235605 | 70 | 193 | 0.0 | 0.0 | 0.00 | 0.24 | 0.24 | 93 | 1012.5 |
| 20260502235105 | 70 | 193 | 0.0 | 1.0 | 0.00 | 0.24 | 0.24 | 94 | 1012.4 |
| 20260502234605 | 70 | 193 | 0.0 | 0.0 | 0.00 | 0.24 | 0.24 | 93 | 1012.2 |
| 20260502234106 | 70 | 193 | 0.0 | 2.0 | 0.00 | 0.24 | 0.24 | 93 | 1012.2 |
| 20260502233105 | 70 | 193 | 0.0 | 0.0 | 0.00 | 0.24 | 0.24 | 93 | 1012.2 |
| 20260502232606 | 70 | 193 | 0.0 | 0.0 | 0.00 | 0.24 | 0.24 | 93 | 1012.1 |
| 20260502232105 | 70 | 193 | 0.0 | 1.0 | 0.00 | 0.24 | 0.24 | 93 | 1012.1 |
| 20260502231605 | 70 | 193 | 0.0 | 2.0 | 0.00 | 0.24 | 0.24 | 93 | 1012.0 |
| 20260502230606 | 70 | 194 | 1.0 | 2.0 | 0.00 | 0.24 | 0.24 | 93 | 1012.2 |
| 20260502230111 | 70 | 194 | 0.0 | 1.0 | 0.00 | 0.24 | 0.24 | 93 | 1012.2 |
| 20260502225606 | 70 | 194 | 0.0 | 1.0 | 0.00 | 0.24 | 0.24 | 93 | 1012.2 |
| 20260502225105 | 70 | 194 | 0.0 | 1.0 | 0.00 | 0.24 | 0.24 | 93 | 1012.2 |
| 20260502224605 | 70 | 194 | 1.0 | 2.0 | 0.00 | 0.24 | 0.24 | 93 | 1012.2 |
| 20260502224105 | 70 | 195 | 0.0 | 2.0 | 0.00 | 0.24 | 0.24 | 93 | 1012.3 |
| 20260502223605 | 70 | 195 | 1.0 | 3.0 | 0.00 | 0.24 | 0.24 | 93 | 1012.2 |
| 20260502223105 | 70 | 195 | 1.0 | 3.0 | 0.01 | 0.24 | 0.24 | 93 | 1012.0 |
| 20260502222606 | 70 | 211 | 0.0 | 3.0 | 0.01 | 0.24 | 0.24 | 93 | 1012.4 |
| 20260502222105 | 70 | 236 | 1.0 | 3.0 | 0.01 | 0.24 | 0.24 | 92 | 1012.3 |
| 20260502221605 | 70 | 256 | 1.0 | 2.0 | 0.01 | 0.24 | 0.24 | 92 | 1012.2 |
| 20260502221105 | 70 | 310 | 1.0 | 3.0 | 0.01 | 0.24 | 0.24 | 93 | 1012.5 |
| 20260502220605 | 70 | 308 | 1.0 | 3.0 | 0.01 | 0.24 | 0.24 | 92 | 1012.1 |
| 20260502215605 | 70 | 317 | 2.0 | 7.0 | 0.01 | 0.24 | 0.24 | 93 | 1012.1 |
| 20260502215105 | 69 | 114 | 2.0 | 5.0 | 0.02 | 0.24 | 0.24 | 93 | 1011.9 |
| 20260502214105 | 69 | 147 | 1.0 | 2.0 | 0.03 | 0.24 | 0.24 | 93 | 1011.1 |
| 20260502213605 | 69 | 147 | 1.0 | 2.0 | 0.03 | 0.24 | 0.24 | 93 | 1010.9 |
| 20260502213105 | 69 | 160 | 1.0 | 3.0 | 0.03 | 0.23 | 0.23 | 93 | 1011.1 |
| 20260502212605 | 69 | 161 | 1.0 | 3.0 | 0.03 | 0.23 | 0.23 | 93 | 1011.2 |
| 20260502212105 | 69 | 161 | 0.0 | 1.0 | 0.03 | 0.23 | 0.23 | 93 | 1011.3 |
| 20260502211605 | 69 | 161 | 0.0 | 1.0 | 0.03 | 0.23 | 0.23 | 93 | 1011.6 |
| 20260502211105 | 69 | 161 | 0.0 | 1.0 | 0.03 | 0.23 | 0.23 | 93 | 1011.7 |
| 20260502210111 | 69 | 161 | 0.0 | 3.0 | 0.03 | 0.23 | 0.23 | 93 | 1011.8 |
| 20260502205105 | 69 | 160 | 1.0 | 3.0 | 0.03 | 0.22 | 0.22 | 93 | 1011.8 |
| 20260502204605 | 69 | 204 | 1.0 | 3.0 | 0.02 | 0.21 | 0.21 | 93 | 1011.7 |
| 20260502204105 | 69 | 165 | 1.0 | 3.0 | 0.05 | 0.21 | 0.21 | 93 | 1011.9 |
| 20260502203605 | 69 | 189 | 0.0 | 3.0 | 0.06 | 0.21 | 0.21 | 93 | 1012.2 |
| 20260502203105 | 69 | 196 | 2.0 | 3.0 | 0.06 | 0.20 | 0.20 | 93 | 1012.5 |
| 20260502202105 | 68 | 172 | 1.0 | 3.0 | 0.16 | 0.20 | 0.20 | 92 | 1012.3 |
| 20260502201606 | 68 | 151 | 2.0 | 3.0 | 0.17 | 0.20 | 0.20 | 92 | 1012.2 |
| 20260502201105 | 68 | 181 | 1.0 | 6.0 | 0.19 | 0.20 | 0.20 | 92 | 1011.7 |
| 20260502200111 | 68 | 149 | 1.0 | 6.0 | 0.20 | 0.20 | 0.20 | 91 | 1011.7 |
| 20260502195605 | 68 | 169 | 2.0 | 3.0 | 0.20 | 0.20 | 0.20 | 91 | 1012.1 |
| 20260502194605 | 68 | 301 | 0.0 | 3.0 | 0.19 | 0.19 | 0.19 | 90 | 1012.4 |
| 20260502193605 | 69 | 335 | 1.0 | 6.0 | 0.15 | 0.15 | 0.15 | 89 | 1013.0 |
| 20260502193105 | 69 | 295 | 2.0 | 9.0 | 0.14 | 0.14 | 0.14 | 89 | 1013.2 |
| 20260502192605 | 70 | 312 | 5.0 | 14.0 | 0.09 | 0.09 | 0.09 | 87 | 1013.5 |
| 20260502192105 | 71 | 313 | 5.0 | 14.0 | 0.04 | 0.04 | 0.04 | 84 | 1013.3 |
| 20260502191605 | 73 | 293 | 2.0 | 12.0 | 0.03 | 0.03 | 0.03 | 80 | 1013.4 |
| 20260502191105 | 76 | 312 | 8.0 | 21.0 | 0.01 | 0.01 | 0.01 | 73 | 1013.5 |
| 20260502190606 | 80 | 322 | 7.0 | 16.0 | 0.00 | 0.00 | 0.00 | 72 | 1013.1 |
| 20260502190111 | 82 | 217 | 2.0 | 8.0 | 0.00 | 0.00 | 0.00 | 78 | 1012.5 |
| 20260502185106 | 82 | 80 | 2.0 | 6.0 | 0.00 | 0.00 | 0.00 | 78 | 1012.6 |
| 20260502184105 | 82 | 184 | 2.0 | 3.0 | 0.00 | 0.00 | 0.00 | 77 | 1012.2 |
| 20260502183105 | 82 | 302 | 1.0 | 3.0 | 0.00 | 0.00 | 0.00 | 78 | 1012.3 |
| 20260502182604 | 82 | 236 | 2.0 | 12.0 | 0.00 | 0.00 | 0.00 | 76 | 1012.5 |
| 20260502182105 | 83 | 307 | 5.0 | 9.0 | 0.00 | 0.00 | 0.00 | 73 | 1012.4 |
| 20260502181605 | 84 | 298 | 4.0 | 12.0 | 0.00 | 0.00 | 0.00 | 72 | 1012.5 |
| 20260502181105 | 84 | 310 | 5.0 | 12.0 | 0.00 | 0.00 | 0.00 | 71 | 1012.3 |
| 20260502180111 | 84 | 239 | 3.0 | 10.0 | 0.00 | 0.00 | 0.00 | 72 | 1012.4 |
| 20260502170110 | 86 | 352 | 4.0 | 10.0 | 0.00 | 0.00 | 0.00 | 70 | 1012.6 |
| 20260502164105 | 86 | 298 | 5.0 | 9.0 | 0.00 | 0.00 | 0.00 | 68 | 1012.3 |
| 20260502163605 | 86 | 248 | 3.0 | 5.0 | 0.00 | 0.00 | 0.00 | 68 | 1012.2 |
| 20260502163104 | 86 | 308 | 5.0 | 12.0 | 0.00 | 0.00 | 0.00 | 68 | 1012.3 |
| 20260502161604 | 86 | 216 | 3.0 | 8.0 | 0.00 | 0.00 | 0.00 | 71 | 1012.4 |
| 20260502161105 | 85 | 173 | 2.0 | 7.0 | 0.00 | 0.00 | 0.00 | 73 | 1012.4 |
| 20260502160605 | 85 | 178 | 3.0 | 8.0 | 0.00 | 0.00 | 0.00 | 72 | 1012.5 |
| 20260502160111 | 85 | 206 | 2.0 | 8.0 | 0.00 | 0.00 | 0.00 | 69 | 1012.5 |
| 20260502152104 | 84 | 172 | 3.0 | 8.0 | 0.00 | 0.00 | 0.00 | 68 | 1012.7 |
| 20260502151605 | 84 | 234 | 3.0 | 12.0 | 0.00 | 0.00 | 0.00 | 68 | 1012.7 |
| 20260502151104 | 84 | 169 | 4.0 | 12.0 | 0.00 | 0.00 | 0.00 | 68 | 1012.8 |
| 20260502150605 | 84 | 190 | 5.0 | 12.0 | 0.00 | 0.00 | 0.00 | 70 | 1012.5 |
| 20260502140110 | 80 | 245 | 1.0 | 3.0 | 0.00 | 0.00 | 0.00 | 80 | 1012.9 |
| 20260502130605 | 75 | 186 | 4.0 | 9.0 | 0.00 | 0.00 | 0.00 | 86 | 1012.2 |
| 20260502130110 | 74 | 204 | 3.0 | 6.0 | 0.00 | 0.00 | 0.00 | 88 | 1012.0 |
| 20260502123605 | 71 | 151 | 1.0 | 5.0 | 0.00 | 0.00 | 0.00 | 95 | 1011.9 |
| 20260502122605 | 70 | 158 | 3.0 | 8.0 | 0.00 | 0.00 | 0.00 | 95 | 1011.7 |
| 20260502122105 | 70 | 162 | 2.0 | 3.0 | 0.00 | 0.00 | 0.00 | 95 | 1011.7 |
| 20260502121604 | 70 | 161 | 2.0 | 3.0 | 0.00 | 0.00 | 0.00 | 95 | 1011.7 |
| 20260502121105 | 69 | 150 | 1.0 | 3.0 | 0.00 | 0.00 | 0.00 | 95 | 1011.5 |
| 20260502120604 | 69 | 136 | 2.0 | 3.0 | 0.00 | 0.00 | 0.00 | 95 | 1011.5 |
| 20260502120110 | 69 | 157 | 2.0 | 3.0 | 0.00 | 0.00 | 0.00 | 95 | 1011.5 |
| 20260502115605 | 68 | 156 | 1.0 | 5.0 | 0.00 | 0.00 | 0.00 | 95 | 1011.5 |
| 20260502115104 | 68 | 136 | 2.0 | 3.0 | 0.00 | 0.00 | 0.00 | 95 | 1011.5 |
| 20260502114604 | 67 | 165 | 1.0 | 3.0 | 0.00 | 0.00 | 0.00 | 95 | 1011.4 |
| 20260502113605 | 66 | 313 | 0.0 | 1.0 | 0.00 | 0.00 | 0.00 | 94 | 1011.2 |
| 20260502113104 | 66 | 313 | 0.0 | 0.0 | 0.00 | 0.00 | 0.00 | 95 | 1011.3 |
| 20260502112604 | 66 | 313 | 0.0 | 0.0 | 0.00 | 0.00 | 0.00 | 94 | 1011.3 |
| 20260502112104 | 66 | 313 | 0.0 | 0.0 | 0.00 | 0.00 | 0.00 | 94 | 1011.3 |
| 20260502111604 | 66 | 313 | 0.0 | 0.0 | 0.00 | 0.00 | 0.00 | 94 | 1011.3 |
| 20260502111105 | 66 | 313 | 0.0 | 0.0 | 0.00 | 0.00 | 0.00 | 94 | 1011.4 |
| 20260502110604 | 66 | 313 | 0.0 | 0.0 | 0.00 | 0.00 | 0.00 | 94 | 1011.4 |
| 20260502110110 | 66 | 313 | 0.0 | 0.0 | 0.00 | 0.00 | 0.00 | 94 | 1011.3 |
| 20260502105605 | 65 | 313 | 0.0 | 0.0 | 0.00 | 0.00 | 0.00 | 94 | 1011.3 |
| 20260502105104 | 65 | 313 | 0.0 | 0.0 | 0.00 | 0.00 | 0.00 | 94 | 1011.2 |
| 20260502104605 | 65 | 313 | 0.0 | 0.0 | 0.00 | 0.00 | 0.00 | 94 | 1011.2 |
| 20260502104105 | 66 | 313 | 0.0 | 0.0 | 0.00 | 0.00 | 0.00 | 94 | 1011.2 |
| 20260502103604 | 66 | 313 | 0.0 | 0.0 | 0.00 | 0.00 | 0.00 | 94 | 1011.1 |
| 20260502103104 | 66 | 313 | 0.0 | 0.0 | 0.00 | 0.00 | 0.00 | 94 | 1011.1 |
| 20260502102605 | 66 | 313 | 0.0 | 0.0 | 0.00 | 0.00 | 0.00 | 94 | 1011.1 |
| 20260502102105 | 66 | 313 | 0.0 | 0.0 | 0.00 | 0.00 | 0.00 | 94 | 1011.2 |
| 20260502101604 | 66 | 313 | 0.0 | 0.0 | 0.00 | 0.00 | 0.00 | 94 | 1011.1 |
| 20260502101106 | 66 | 313 | 0.0 | 0.0 | 0.00 | 0.00 | 0.00 | 94 | 1011.2 |
| 20260502091104 | 66 | 313 | 0.0 | 0.0 | 0.00 | 0.00 | 0.00 | 94 | 1011.4 |
| 20260502090604 | 66 | 313 | 0.0 | 1.0 | 0.00 | 0.00 | 0.00 | 94 | 1011.5 |
| 20260502090110 | 65 | 313 | 0.0 | 0.0 | 0.00 | 0.00 | 0.00 | 93 | 1011.5 |
| 20260502080110 | 66 | 313 | 0.0 | 0.0 | 0.00 | 0.00 | 0.00 | 93 | 1012.0 |
| 20260502071104 | 67 | 313 | 0.0 | 0.0 | 0.00 | 0.00 | 0.00 | 93 | 1012.0 |
| 20260502070604 | 67 | 313 | 0.0 | 0.0 | 0.00 | 0.00 | 0.00 | 92 | 1012.1 |
| 20260502070110 | 67 | 313 | 0.0 | 0.0 | 0.00 | 0.00 | 0.00 | 93 | 1012.1 |
| 20260502065603 | 67 | 313 | 0.0 | 0.0 | 0.00 | 0.00 | 0.00 | 92 | 1012.1 |
| 20260502065104 | 67 | 313 | 0.0 | 0.0 | 0.00 | 0.00 | 0.00 | 92 | 1012.2 |
| 20260502064604 | 67 | 313 | 0.0 | 0.0 | 0.00 | 0.00 | 0.00 | 92 | 1012.3 |
| 20260502064103 | 67 | 313 | 0.0 | 0.0 | 0.00 | 0.00 | 0.00 | 92 | 1012.3 |
| 20260502063604 | 67 | 313 | 0.0 | 0.0 | 0.00 | 0.00 | 0.00 | 92 | 1012.4 |
| 20260502062604 | 67 | 313 | 0.0 | 0.0 | 0.00 | 0.00 | 0.00 | 92 | 1012.4 |
| 20260502062103 | 67 | 313 | 0.0 | 0.0 | 0.00 | 0.00 | 0.00 | 92 | 1012.5 |
| 20260502061604 | 68 | 313 | 0.0 | 0.0 | 0.00 | 0.00 | 0.00 | 92 | 1012.6 |
| 20260502061104 | 68 | 313 | 0.0 | 0.0 | 0.00 | 0.00 | 0.00 | 92 | 1012.6 |
| 20260502060604 | 68 | 313 | 0.0 | 0.0 | 0.00 | 0.00 | 0.00 | 92 | 1012.6 |
| 20260502060110 | 68 | 313 | 0.0 | 0.0 | 0.00 | 0.00 | 0.00 | 92 | 1012.7 |
| 20260502055604 | 68 | 313 | 0.0 | 0.0 | 0.00 | 0.00 | 0.00 | 92 | 1012.6 |
| 20260502055104 | 68 | 313 | 0.0 | 0.0 | 0.00 | 0.00 | 0.00 | 92 | 1012.7 |
| 20260502054604 | 68 | 313 | 0.0 | 0.0 | 0.00 | 0.00 | 0.00 | 92 | 1012.8 |
| 20260502054104 | 68 | 313 | 0.0 | 1.0 | 0.00 | 0.00 | 0.00 | 92 | 1012.8 |
| 20260502052604 | 69 | 313 | 0.0 | 0.0 | 0.00 | 0.00 | 0.00 | 92 | 1012.9 |
| 20260502052103 | 69 | 313 | 0.0 | 0.0 | 0.00 | 0.00 | 0.00 | 91 | 1013.0 |
| 20260502051604 | 69 | 313 | 0.0 | 0.0 | 0.00 | 0.00 | 0.00 | 91 | 1013.1 |
| 20260502051104 | 69 | 313 | 0.0 | 0.0 | 0.00 | 0.00 | 0.00 | 91 | 1013.0 |
| 20260502050603 | 69 | 313 | 0.0 | 12.0 | 0.00 | 0.00 | 0.00 | 91 | 1013.0 |
| 20260502050109 | 69 | 313 | 0.0 | 0.0 | 0.00 | 0.00 | 0.00 | 91 | 1013.0 |
| 20260502045604 | 69 | 313 | 0.0 | 0.0 | 0.00 | 0.00 | 0.00 | 91 | 1013.0 |
| 20260502045103 | 69 | 313 | 0.0 | 0.0 | 0.00 | 0.00 | 0.00 | 91 | 1013.2 |
| 20260502044604 | 69 | 313 | 0.0 | 0.0 | 0.00 | 0.00 | 0.00 | 91 | 1013.2 |
| 20260502044106 | 69 | 313 | 0.0 | 0.0 | 0.00 | 0.00 | 0.00 | 91 | 1013.1 |
| 20260502043606 | 70 | 313 | 0.0 | 0.0 | 0.00 | 0.00 | 0.00 | 91 | 1013.0 |
| 20260502043105 | 70 | 313 | 0.0 | 0.0 | 0.00 | 0.00 | 0.00 | 91 | 1013.0 |
| 20260502041606 | 70 | 313 | 0.0 | 0.0 | 0.00 | 0.00 | 0.00 | 90 | 1012.9 |
| 20260502041105 | 70 | 313 | 0.0 | 0.0 | 0.00 | 0.00 | 0.00 | 90 | 1012.9 |
| 20260502040606 | 70 | 313 | 0.0 | 0.0 | 0.00 | 0.00 | 0.00 | 90 | 1013.0 |
| 20260502040112 | 70 | 313 | 0.0 | 0.0 | 0.00 | 0.00 | 0.00 | 90 | 1012.9 |
| 20260502035606 | 70 | 313 | 0.0 | 0.0 | 0.00 | 0.00 | 0.00 | 90 | 1013.0 |
| 20260502035105 | 71 | 313 | 0.0 | 0.0 | 0.00 | 0.00 | 0.00 | 90 | 1013.0 |
| 20260502034606 | 71 | 313 | 0.0 | 0.0 | 0.00 | 0.00 | 0.00 | 90 | 1012.9 |
| 20260502033605 | 71 | 313 | 0.0 | 0.0 | 0.00 | 0.00 | 0.00 | 89 | 1013.0 |
| 20260502033105 | 71 | 313 | 0.0 | 0.0 | 0.00 | 0.00 | 0.00 | 89 | 1013.1 |